[[{"header":{"parameterUnit":"m.s-1","parameterCategory":1,"la1":30.2992,"la2":30.254,"lo1":-89.0895,"lo2":-89.0443,"dy":0.0025,"dx":0.0025,"nx":19,"ny":19,"refTime":"2026-05-19T09:00:00:Z","depth":0,"parameterNumber":2,"parameterNumberName":"U-component_of_WINDS"},"data":[0,0,0,-1.8247,-1.8248,-1.8275,-1.8275,-1.8317,-1.8318,0,0,0,0,0,0,0,0,0,0,0,-1.8245,-1.8245,-1.8247,-1.8248,-1.8275,-1.8275,-1.8317,-1.8318,0,0,0,0,0,0,0,0,0,0,0,-1.8244,-1.8245,-1.8245,-1.8248,-1.8275,-1.8275,-1.8317,-1.8294,0,0,0,0,0,0,0,0,0,0,-1.8267,-1.8269,-1.8245,-1.8245,-1.8249,-1.8275,-1.8275,-1.8293,-1.8296,-1.8309,0,-1.8322,0,-1.8321,-1.8321,-1.8321,0,0,0,-1.8245,-1.8267,-1.8269,-1.8246,-1.8249,-1.8275,-1.8262,-1.8294,-1.8297,-1.8313,-1.8323,-1.8324,-1.8321,-1.8322,-1.8322,-1.8411,-1.8412,0,0,-1.8243,-1.8252,-1.8267,-1.8272,-1.8268,-1.8261,-1.8263,-1.8296,-1.8307,-1.8323,-1.8325,-1.8322,-1.8322,-1.8322,-1.8411,-1.8412,0,0,0,-1.8241,-1.8251,-1.8253,-1.827,-1.8274,-1.8262,-1.8264,-1.8306,-1.8306,-1.8325,-1.8323,-1.8322,-1.8323,-1.841,-1.8411,-1.8448,0,0,0,-1.824,-1.825,-1.8252,-1.8258,-1.8274,-1.829,-1.8273,-1.8303,-1.8307,-1.8322,-1.8322,-1.8323,-1.8409,-1.8411,-1.8446,-1.8464,0,0,0,-1.8241,-1.825,-1.8256,-1.8258,-1.827,-1.829,-1.8291,-1.8304,-1.8306,-1.8321,-1.8323,-1.8409,-1.841,-1.8443,-1.846,-1.849,0,0,0,-1.8245,-1.8288,-1.8256,-1.8304,-1.827,-1.8313,-1.8291,-1.8322,-1.834,-1.8322,-1.841,-1.8411,-1.8443,-1.8458,-1.8487,-1.8515,-1.8528,0,0,-1.8304,-1.8296,-1.8323,-1.8295,-1.8346,-1.8308,-1.8364,-1.8372,-1.8366,-1.8397,-1.8399,-1.8446,-1.846,-1.8489,-1.8598,-1.8608,0,0,0,-1.8345,-1.8365,-1.8376,-1.8394,-1.8402,-1.841,-1.8409,-1.8412,-1.8438,-1.8383,-1.8465,-1.8473,-1.849,-1.8503,-1.8511,-1.8525,-1.8418,-1.8417,-1.8417,-1.8441,-1.8431,-1.8476,-1.847,-1.8487,-1.8487,-1.85,-1.8504,-1.8489,-1.8509,-1.8517,-1.8584,-1.86,-1.8606,-1.862,-1.8532,-1.8532,-1.8532,-1.8532,-1.8527,-1.8553,-1.8533,-1.8569,-1.8559,-1.8589,-1.8591,-1.8579,-1.8606,-1.8577,-1.8591,-1.8559,-1.8617,-1.8629,-1.8535,-1.8535,-1.8534,-1.8534,-1.8534,-1.8588,-1.8599,-1.8603,-1.8628,-1.8649,-1.8641,-1.8668,-1.8658,-1.8649,-1.8663,-1.8671,-1.867,-1.8668,-1.8668,-1.8668,-1.8668,-1.8669,-1.8669,-1.8669,-1.8649,-1.8652,-1.8676,-1.8689,-1.8699,-1.8712,-1.8713,-1.8723,-1.8732,-1.8723,-1.8723,-1.8705,-1.8625,-1.8605,-1.8672,-1.8672,-1.8671,-1.8671,-1.8671,-1.8738,-1.8716,-1.8753,-1.8764,-1.8779,-1.88,-1.8788,-1.881,-1.8817,-1.8831,-1.8811,-1.8754,-1.8744,-1.8737,-1.872,-1.8814,-1.8814,-1.8814,-1.8814,-1.8788,-1.8783,-1.8818,-1.8836,-1.8853,-1.8846,-1.8888,-1.889,-1.8889,-1.8893,-1.8878,-1.8855,-1.8849,-1.8843,-1.8834,-1.8817,-1.8933,-1.8933,-1.8934,-1.8842,-1.8838,-1.8876,-1.8874,-1.8885,-1.8896,-1.8935,-1.8957,-1.8952,-1.8938,-1.8896,-1.8891,-1.8854,-1.8842,-1.8826,-1.8812,-1.8782,0,0]},{"header":{"parameterUnit":"m.s-1","parameterCategory":1,"la1":30.2992,"la2":30.254,"lo1":-89.0895,"lo2":-89.0443,"dy":0.0025,"dx":0.0025,"nx":19,"ny":19,"refTime":"2026-05-19T09:00:00:Z","depth":0,"parameterNumber":3,"parameterNumberName":"V-component_of_WINDS"},"data":[0,0,0,1.0323,1.0324,1.0356,1.0356,1.0397,1.0397,0,0,0,0,0,0,0,0,0,0,0,1.0314,1.0314,1.0323,1.0324,1.0356,1.0356,1.0397,1.0397,0,0,0,0,0,0,0,0,0,0,0,1.0314,1.0314,1.0315,1.0324,1.0356,1.0356,1.0397,1.0372,0,0,0,0,0,0,0,0,0,0,1.0341,1.0333,1.0314,1.0315,1.0324,1.0356,1.0356,1.0371,1.0374,1.0382,0,1.039,0,1.0394,1.04,1.04,0,0,0,1.0324,1.0331,1.0339,1.0315,1.0325,1.0356,1.0342,1.0373,1.0376,1.0386,1.0391,1.0392,1.0395,1.04,1.04,1.0451,1.0451,0,0,1.0322,1.032,1.0337,1.0341,1.0337,1.0341,1.0343,1.0375,1.0379,1.0391,1.0393,1.0396,1.04,1.0401,1.045,1.0451,0,0,0,1.0317,1.0318,1.0326,1.034,1.0346,1.0342,1.0344,1.0378,1.0381,1.0393,1.0396,1.0401,1.0401,1.045,1.045,1.0461,0,0,0,1.0316,1.0315,1.0325,1.0324,1.0345,1.0362,1.0346,1.0379,1.0382,1.0396,1.0401,1.0402,1.045,1.045,1.046,1.0466,0,0,0,1.0312,1.0315,1.032,1.0324,1.0338,1.0362,1.0366,1.0379,1.0384,1.04,1.0402,1.045,1.045,1.0459,1.0465,1.0479,0,0,0,1.0306,1.0328,1.032,1.0345,1.0338,1.0368,1.0366,1.0389,1.0404,1.0401,1.045,1.045,1.0459,1.0464,1.0478,1.0491,1.0495,0,0,1.0332,1.033,1.0345,1.0339,1.0371,1.0363,1.0396,1.0412,1.0415,1.0439,1.044,1.046,1.0464,1.0479,1.0524,1.0528,0,0,0,1.0353,1.0363,1.0372,1.0387,1.04,1.0412,1.0423,1.0429,1.0449,1.0427,1.0469,1.0472,1.048,1.0486,1.049,1.0497,1.0453,1.0453,1.0453,1.0384,1.0389,1.0414,1.0422,1.0437,1.0449,1.0461,1.0471,1.047,1.048,1.0487,1.0514,1.0521,1.0523,1.0531,1.0494,1.0494,1.0494,1.0494,1.0422,1.0438,1.0438,1.0463,1.0467,1.0487,1.05,1.0499,1.0519,1.0509,1.0516,1.0505,1.0528,1.0535,1.0495,1.0494,1.0494,1.0494,1.0494,1.0443,1.0452,1.046,1.0483,1.0499,1.0507,1.0527,1.053,1.0532,1.054,1.0548,1.0548,1.0548,1.0544,1.0544,1.0544,1.0544,1.0544,1.0544,1.0463,1.0471,1.0487,1.0504,1.0515,1.0529,1.0542,1.0552,1.0565,1.0565,1.0565,1.0564,1.0529,1.052,1.0546,1.0545,1.0545,1.0545,1.0545,1.0499,1.0492,1.0517,1.0528,1.0548,1.0566,1.057,1.0591,1.06,1.0609,1.0606,1.058,1.0579,1.0576,1.0569,1.0605,1.0605,1.0605,1.0605,1.0518,1.0518,1.0545,1.0562,1.0579,1.0586,1.0614,1.0625,1.0634,1.064,1.0636,1.0626,1.0624,1.0624,1.062,1.0614,1.066,1.066,1.066,1.0541,1.0543,1.0567,1.0577,1.0594,1.0608,1.0635,1.0654,1.0664,1.0663,1.0645,1.0643,1.0628,1.0623,1.0621,1.0615,1.0603,0,0]}]]